Regional Weather Roundup
Issued by NWS

Home | Current Version | Previous Version | Text Only | Print | Product List | Glossary Off
Versions: 1 2 3 4 5 6 7 8 9 10 11 12 13 14 15 16 17 18 19 20 21 22 23 24 25 26 27 28 29 30 31 32 33 34 35 36 37 38 39 40 41 42 43 44 45 46 47 48 49 50

494
ASUS44 KMEG 050710
RWRTN
TENNESSEE HOURLY STATE WEATHER ROUNDUP
NATIONAL WEATHER SERVICE MEMPHIS TN
100 AM CST MON DEC 05 2016

TNZ002-004-019-021-049-052-054-088>092-050800-
WEST TENNESSEE

CITY           SKY/WX    TMP DP  RH WIND       PRES   REMARKS
MEMPHIS INTL   CLOUDY    45  40  82 N8        30.05F
NWS MEMPHIS      N/A     44 N/A N/A MISG        N/A
JACKSON        CLOUDY    44  41  89 NE6       30.06F
DYERSBURG      CLOUDY   N/A N/A N/A NE7       30.07S
UNION CITY     CLOUDY    41  39  93 CALM      30.06R
PARIS          CLOUDY    39  36  87 NE5       30.06R
HUNTINGDON     CLOUDY    43  39  87 CALM      30.06R
LEXINGTON      CLOUDY    43  39  87 N6        30.04S
$$

TNZ008-025-027-028-033-062-065-066-050800-
NORTH MIDDLE TENNESSEE

CITY           SKY/WX    TMP DP  RH WIND       PRES   REMARKS
NASHVILLE      CLOUDY    46  43  89 NW5       30.04F
PORTLAND       CLOUDY    43  43 100 N5        30.04F
CLARKSVILLE    CLOUDY    42  37  82 N6        30.06S
SMYRNA         CLOUDY    46  44  93 NW10      30.05S
CROSSVILLE     CLOUDY    45  43  93 W5        30.01S
$$

TNZ061-075-076-078-094-096-097-050800-
SOUTH MIDDLE TENNESSEE

CITY           SKY/WX    TMP DP  RH WIND       PRES   REMARKS
FAYETTEVILLE   FOG       48  48 100 N5        30.01F VSB 1/4
TULLAHOMA      CLOUDY    45  45 100 N6        30.01S
WINCHESTER     CLOUDY    46  45  93 SE3       30.01S
MCMINNVILLE    CLOUDY    46  46 100 CALM      30.02R
COLUMBIA       CLOUDY   N/A N/A N/A N5        30.02R
SHELBYVILLE    CLOUDY    48  48 100 N5        30.03S
$$

TNZ017-018-042-046-047-050800-
NORTHEAST TENNESSEE

CITY           SKY/WX    TMP DP  RH WIND       PRES   REMARKS
TRI CITIES     CLOUDY    45  44  97 CALM      30.01S FOG
ELIZABETHTON   DRIZZLE   46  45  93 CALM      30.00S
$$

TNZ012-013-036-069-073-074-050800-
CENTRAL EAST TENNESSEE

CITY           SKY/WX    TMP DP  RH WIND       PRES   REMARKS
KNOXVILLE      LGT RAIN  46  45  96 CALM      30.02R VSB 1
OAK RIDGE      CLOUDY    47  45  93 SW3       30.02F FOG
DOWNTOWN KNOXV CLOUDY    46  46 100 CALM      30.03S FOG
GATLINBURG     CLOUDY    43  43 100 CALM      30.02R
MORRISTOWN     CLOUDY    45  45 100 CALM      30.00S FOG
JACKSBORO      CLOUDY    46  46 100 CALM      30.03F FOG
$$

TNZ083-085-099-050800-
SOUTHEAST TENNESSEE

CITY           SKY/WX    TMP DP  RH WIND       PRES   REMARKS
CHATTANOOGA    CLOUDY    46  45  96 CALM      30.05R
$$

SKY/WX REPORTED AS FAIR MEANS FEW OR NO CLOUDS BELOW
12 THOUSAND FEET.





USA.gov is the U.S. government's official web portal to all federal, state and local government web resources and services.